Mason City, IA

10:45 PM CDT on April 24, 2017 (GMT -0500)
Mason City Municipal

Weather History for KMCW - September, 2013

Change the Weather History Date:

Friday, September 20, 2013

  Actual Average Record
Temperature  
Mean Temperature 54 °F 59 °F  
Max Temperature 64 °F 72 °F 90 °F (1895)
Min Temperature 44 °F 46 °F 28 °F (1897)
Degree Days  
Heating Degree Days 11 7  
Month to date heating degree days 69 85  
Since 1 July heating degree days 107 121  
Cooling Degree Days 0 1  
Month to date cooling degree days 108 45  
Year to date cooling degree days 700 601  
Growing Degree Days 4 (Base 50)    
Moisture  
Dew Point 50 °F    
Average Humidity 77    
Maximum Humidity 93    
Minimum Humidity 60    
Precipitation  
Precipitation T in 0.11 in 1.57 in (1948)
Month to date precipitation 0.81 2.23  
Year to date precipitation 34.16 28.59  
Snow  
Snow 0.00 in 0.00 in 0.00 in (2002)
Month to date snowfall 0.0 0.0  
Since 1 July snowfall 0.0 0.0  
Since 1 September snowfall 0.0 0.0  
Snow Depth 0.00 in    
Sea Level Pressure  
Sea Level Pressure 29.93 in    
Wind  
Wind Speed 13 mph (WNW)    
Max Wind Speed 22 mph    
Max Gust Speed 29 mph    
Visibility 10 miles    
Events Rain    
T = Trace of Precipitation, MM = Missing Value Source: NWS Daily Summary

Daily Weather History Graph

Daily Weather History Graph

Search for Another Location

Airport or City:

Trip Planner

Search our weather history database for the weather conditions in past years. The results will help you decide how hot, cold, wet, or windy it might be!

Date:

Astronomy

Sep. 20, 2013 Rise Set
Actual Time 6:58 AM CDT 7:13 PM CDT
Civil Twilight 6:30 AM CDT 7:42 PM CDT
Nautical Twilight 5:56 AM CDT 8:15 PM CDT
Astronomical Twilight 5:22 AM CDT 8:49 PM CDT
Moon 7:44 PM CDT (9/20) 8:17 AM CDT (9/20)
Length of Visible Light 13h 11m
Length of Day
12h 15m
Full, 98% of the Moon is Illuminated
Sep 20
Full
Sep 26
Last Quarter
Oct 4
New
Oct 11
First Quarter
Oct 18
Full

Hourly Weather History & Observations

Time (CDT) Temp. Windchill Dew Point Humidity Pressure Visibility Wind Dir Wind Speed Gust Speed Precip Events Conditions
12:53 AM 61.0 °F - 53.1 °F 75% 29.85 in 10.0 mi WNW 15.0 mph 20.7 mph N/A   Scattered Clouds
1:53 AM 60.1 °F - 53.1 °F 78% 29.86 in 10.0 mi WNW 10.4 mph - N/A   Scattered Clouds
2:53 AM 59.0 °F - 53.1 °F 81% 29.87 in 10.0 mi WNW 12.7 mph 21.9 mph N/A   Overcast
3:53 AM 57.0 °F - 52.0 °F 83% 29.87 in 10.0 mi WNW 12.7 mph - N/A   Mostly Cloudy
4:53 AM 55.9 °F - 52.0 °F 87% 29.88 in 10.0 mi WNW 15.0 mph - N/A   Scattered Clouds
5:53 AM 53.1 °F - 51.1 °F 93% 29.88 in 10.0 mi West 12.7 mph - N/A   Clear
6:53 AM 51.1 °F - 48.9 °F 92% 29.91 in 10.0 mi West 10.4 mph - N/A   Clear
7:53 AM 52.0 °F - 48.9 °F 89% 29.92 in 10.0 mi West 12.7 mph - N/A   Mostly Cloudy
8:53 AM 53.1 °F - 48.9 °F 86% 29.92 in 10.0 mi West 15.0 mph - N/A   Overcast
9:44 AM 55.4 °F - 51.8 °F 88% 29.95 in 10.0 mi West 13.8 mph - N/A   Overcast
9:53 AM 55.9 °F - 51.1 °F 84% 29.93 in 10.0 mi West 17.3 mph - N/A   Overcast
10:53 AM 57.9 °F - 52.0 °F 81% 29.94 in 10.0 mi West 20.7 mph 25.3 mph N/A   Overcast
11:09 AM 59.0 °F - 51.8 °F 77% 29.95 in 10.0 mi WNW 16.1 mph - N/A   Overcast
11:53 AM 57.9 °F - 52.0 °F 81% 29.94 in 10.0 mi West 17.3 mph - N/A   Overcast
12:39 PM 57.2 °F - 53.6 °F 88% 29.95 in 10.0 mi WNW 17.3 mph - 0.00 in Rain Light Rain
12:46 PM 60.8 °F - 53.6 °F 77% 29.95 in 10.0 mi WNW 13.8 mph 20.7 mph 0.00 in   Overcast
12:53 PM 61.0 °F - 53.1 °F 75% 29.93 in 10.0 mi WNW 16.1 mph 27.6 mph 0.00 in   Mostly Cloudy
1:19 PM 62.6 °F - 51.8 °F 68% 29.94 in 10.0 mi WNW 19.6 mph 26.5 mph N/A   Mostly Cloudy
1:30 PM 62.6 °F - 50.0 °F 63% 29.94 in 10.0 mi NW 20.7 mph 26.5 mph N/A   Mostly Cloudy
1:53 PM 63.0 °F - 51.1 °F 65% 29.91 in 10.0 mi NW 16.1 mph 23.0 mph N/A   Mostly Cloudy
2:53 PM 63.0 °F - 48.9 °F 60% 29.91 in 10.0 mi NW 20.7 mph 26.5 mph N/A   Overcast
3:53 PM 62.1 °F - 48.9 °F 62% 29.92 in 10.0 mi WNW 16.1 mph - N/A   Overcast
4:53 PM 60.1 °F - 48.9 °F 67% 29.93 in 10.0 mi WNW 17.3 mph - N/A   Overcast
5:53 PM 59.0 °F - 48.9 °F 69% 29.93 in 10.0 mi WNW 10.4 mph - N/A   Overcast
6:53 PM 57.9 °F - 48.9 °F 72% 29.94 in 10.0 mi WNW 6.9 mph - N/A   Overcast
7:53 PM 55.9 °F - 46.9 °F 72% 29.95 in 10.0 mi WNW 11.5 mph - N/A   Mostly Cloudy
8:53 PM 51.1 °F - 46.0 °F 83% 29.96 in 10.0 mi WNW 8.1 mph - N/A   Clear
9:53 PM 48.9 °F - 46.0 °F 90% 29.98 in 10.0 mi WNW 5.8 mph - N/A   Clear
10:53 PM 46.0 °F 42.5 °F 44.1 °F 93% 29.98 in 10.0 mi WNW 6.9 mph - N/A   Clear
11:53 PM 45.0 °F 41.2 °F 43.0 °F 93% 29.98 in 10.0 mi West 6.9 mph - N/A   Clear